Volver al catálogo

COSMOS 2570

ActivoNavegaciónLEO
NORAD 58148·PAYLOAD·🇷🇺 Russia

Lanzado Oct 27, 2023 desde Plesetsk Cosmodrome

Loading…

Próximos Pases (próximas 24 horas)

TLE

ActualizadoSource: Space-Track

Época: Sep 14, 2026, 21:56 UTC

1 58148U 23165A   26257.91453565 -.00000059  00000-0  11466-4 0  9990
2 58148  67.1482  71.3533 0006711 267.6337  92.3979 13.96676617147167

Sigue COSMOS 2570 en tiempo real con AllMySat

Download on the App Store